Find INTELSAT IVA F2

NORAD ID: 8620 Int'l Des: 1976-010 Owner: INTEL Country: I-INT operational
HEOCIRCULAR

Live Position

Loading 3D Globe...

About INTELSAT IVA F2

Description loading...

Upcoming Passes

Passes for default location (London). Set your location on the main map for personalized predictions.

Altitude History

Loading altitude history...

Two-Line Element Set

1 8620U 76010A 26110.46502792 -.00000251 00000-0 00000+0 0 9993
2 8620 8.0227 304.2951 0005776 314.7512 54.4165 0.99687690620040
Epoch: Apr 20, 2026 • Age: 13 hours

Current Status

Altitude 35957.7 km
Velocity 3.07 km/s
Sub-Earth Point -3.96°S, 63.97°W
Type communications

Most Searched